Wind_Speed
16 17 22 28 23 23 26 29 28 32 32 30 33 33 31 33 30 33 32 22 21 24 24 23 21 19 16 18 18 21 24 26 23 19 20 19 18 16 17 22 23 23 25 26 28
14 19 25 26 25 23 21 24 29 31 34 34 33 35 36 32 35 34 31 31 27 25 30 33 29 24 25 22 21 22 25 28 27 22 28 22 20 18 18 23 26 28 29 31 33
13 18 27 26 24 24 22 18 27 30 31 36 33 34 32 37 37 39 38 34 32 33 36 37 34 27 26 25 24 26 27 29 28 27 29 28 24 25 22 23 25 29 32 34 37
17 19 21 24 23 22 20 22 24 30 28 30 34 33 33 31 33 36 34 38 38 38 42 37 35 30 31 32 32 31 28 28 27 31 27 29 28 32 31 31 30 29 31 34 38
23 22 23 23 22 22 23 26 26 27 30 31 31 32 30 34 36 37 39 40 37 37 38 36 34 35 34 31 30 28 29 28 28 35 31 30 30 31 32 31 32 33 34 34 34
26 27 27 26 27 27 26 25 26 27 29 31 34 34 33 32 39 38 38 41 41 42 42 41 42 40 35 33 31 33 31 31 32 33 36 37 34 34 37 39 39 40 43 42 41
25 26 28 29 29 29 31 31 31 31 31 34 36 39 40 41 38 41 42 41 43 40 39 39 39 41 39 38 37 35 35 33 33 38 39 40 38 40 40 41 43 44 45 48 48
25 27 26 27 27 29 29 30 30 32 34 36 38 40 40 41 42 42 44 44 43 42 43 44 43 45 44 43 42 39 41 42 40 39 37 40 39 44 44 45 49 49 50 51 52
28 28 28 27 25 26 29 30 32 32 33 34 34 36 38 39 42 44 46 46 47 47 46 46 47 47 46 47 47 43 46 45 42 40 41 43 41 46 49 51 49 50 50 49 49
21 23 27 27 27 27 28 29 29 30 32 33 34 35 35 35 34 35 37 39 40 41 41 38 38 39 41 41 42 42 42 40 36 45 46 43 45 49 50 52 52 52 51 50 50
21 22 23 27 30 30 30 30 30 30 31 34 34 34 34 34 33 34 36 38 39 40 38 37 37 39 39 40 42 41 43 44 39 47 46 47 50 51 50 52 53 53 51 50 52
24 25 27 28 27 29 34 37 35 34 34 35 37 38 38 37 37 38 39 38 38 39 38 39 40 41 43 43 44 46 48 47 48 48 48 51 50 51 53 52 54 54 52 52 53
27 29 30 31 31 32 33 34 36 36 37 36 36 40 41 42 42 42 44 43 44 45 46 45 47 47 48 50 51 51 51 47 50 54 52 53 50 51 53 52 53 54 55 54 54
31 32 34 35 36 37 38 40 41 41 41 39 39 40 41 43 45 46 47 48 48 49 49 49 50 50 51 53 54 53 56 51 52 57 55 55 57 54 55 54 54 55 56 56 56
37 38 41 42 42 44 45 46 46 47 49 42 45 46 46 48 46 48 49 50 52 53 53 54 51 53 54 55 54 56 54 55 55 57 59 56 61 55 57 56 57 55 55 58 62
45 46 48 49 49 50 51 52 52 53 53 50 51 51 51 52 51 51 52 52 53 55 56 56 54 56 57 54 54 59 58 58 57 58 57 59 62 59 54 57 58 59 59 58 59
50 51 52 52 54 54 55 56 56 59 54 54 55 55 55 56 56 56 57 56 57 57 59 59 57 59 59 59 60 61 61 60 60 59 57 62 61 64 49 58 60 59 58 58 59
54 55 56 56 58 59 60 60 60 60 58 57 60 58 59 59 60 61 61 61 60 58 60 59 60 60 57 59 58 58 58 58 58 58 60 63 60 53 55 59 60 61 62 61 61
59 60 61 60 60 61 61 61 62 64 64 64 65 66 66 67 66 65 64 64 64 62 64 64 63 61 57 61 60 61 60 60 62 59 60 66 59 60 57 60 62 62 63 64 63
56 57 60 60 62 64 64 66 65 67 66 67 70 68 71 70 71 71 71 71 71 67 69 69 67 65 62 63 62 62 64 62 62 61 63 67 66 65 60 61 64 64 63 64 64
32 33 36 37 40 44 46 49 53 57 61 66 72 74 76 77 77 78 77 81 74 74 75 75 72 73 67 68 67 66 65 65 67 63 67 65 74 70 65 66 67 68 69 71 71
37 39 42 45 47 51 56 58 61 62 63 65 69 68 70 78 83 83 84 85 79 82 83 81 77 77 76 69 71 71 69 71 69 67 71 72 81 76 72 73 71 72 73 74 78
43 45 48 51 56 55 56 58 62 65 69 73 76 79 77 79 75 80 87 87 89 88 86 85 83 81 80 75 76 75 77 74 77 74 73 79 82 81 81 77 77 79 81 81 83
47 50 52 54 56 58 61 61 61 63 62 62 65 71 78 84 84 84 83 81 83 86 91 93 90 88 86 88 81 81 83 79 81 80 79 87 90 82 83 85 85 84 85 84 85
53 55 56 57 58 57 58 58 55 54 52 51 47 48 56 66 79 87 88 85 87 85 85 86 86 90 91 89 91 90 87 85 87 88 84 94 90 88 87 87 89 88 87 88 87
55 55 58 59 57 57 54 50 51 51 52 49 51 50 51 50 55 62 70 82 88 89 91 90 88 87 85 87 92 92 89 88 88 88 90 95 90 84 87 86 84 84 82 81 82
56 59 58 58 57 54 51 50 50 52 50 54 56 56 57 56 58 57 58 58 61 72 83 88 92 89 90 89 87 88 87 86 85 86 86 88 85 87 88 86 87 86 88 89 90
Wind_Direction
214 201 194 190 194 198 199 197 199 207 210 219 220 221 223 224 219 215 220 242 242 237 246 255 251 253 254 247 247 250 255 258 255 249 266 259 259 265 252 256 258 255 254 251 250
217 204 195 194 201 198 202 210 205 209 210 212 219 220 221 223 219 223 230 242 237 236 245 252 251 254 268 245 254 265 258 259 256 256 264 267 257 254 250 255 255 258 259 257 256
220 205 205 207 208 210 206 219 215 214 216 217 218 221 223 229 221 216 224 227 236 248 251 250 248 255 252 250 259 265 266 262 259 263 265 262 262 255 258 269 261 259 258 259 260
225 219 214 217 222 220 224 222 220 223 223 222 222 225 229 229 233 231 236 233 239 247 251 245 244 249 261 259 260 260 261 266 260 261 265 268 264 259 265 268 266 264 265 262 261
228 223 223 225 224 229 235 229 230 225 227 225 227 229 236 236 236 234 233 240 242 250 253 256 250 258 262 261 262 258 259 263 257 258 262 266 265 263 265 263 269 270 272 275 276
230 230 228 228 229 232 234 234 231 232 233 233 234 236 242 242 237 240 240 241 244 249 249 254 255 257 256 254 259 263 262 253 255 260 263 265 267 267 269 270 271 276 278 278 279
230 231 232 232 235 237 238 238 240 240 239 240 240 241 243 248 238 237 240 246 244 243 248 252 255 254 254 259 259 262 257 250 261 266 266 266 269 267 266 270 274 275 276 277 279
235 233 232 235 238 243 241 243 247 250 250 247 246 246 247 246 248 246 244 250 252 252 253 253 254 255 257 259 260 262 255 257 263 263 263 267 267 263 262 270 275 274 274 274 277
238 238 239 238 244 245 245 248 250 252 251 249 247 245 245 247 248 247 247 250 253 255 257 256 255 254 255 256 260 258 260 262 260 260 265 264 263 263 267 272 274 274 274 274 275
236 231 232 237 241 241 244 252 254 254 252 252 251 246 244 244 245 246 247 247 248 250 252 253 252 252 253 254 255 256 259 262 258 260 260 262 261 265 267 269 271 273 275 276 275
240 246 247 247 246 247 250 252 257 256 252 250 249 247 245 243 241 242 244 245 246 247 247 250 251 252 252 254 257 258 260 262 265 261 261 262 263 265 267 268 271 273 273 273 274
241 244 247 249 251 252 252 253 255 256 254 251 250 248 246 245 245 246 247 247 248 249 249 249 251 254 256 257 258 261 263 266 264 263 264 266 268 269 269 269 269 272 273 273 273
253 254 254 254 254 255 254 253 251 251 252 251 249 250 250 249 249 250 250 252 253 254 254 254 255 258 260 260 262 263 263 262 265 266 264 265 265 268 269 270 270 269 268 267 267
257 259 260 262 261 258 255 255 255 255 252 252 252 252 252 252 252 254 254 254 253 254 255 256 256 257 259 260 261 263 264 264 266 266 266 268 268 269 268 268 266 265 264 263 265
263 263 263 263 264 263 260 259 257 257 256 253 256 254 253 254 253 253 254 253 254 256 257 256 257 258 259 259 261 261 261 263 264 267 267 268 268 265 268 270 270 266 262 261 259
264 265 264 266 266 267 267 264 261 259 258 257 256 258 257 256 255 255 255 256 257 258 259 259 258 257 259 261 262 262 263 264 264 266 270 267 266 268 267 268 265 264 265 265 264
262 262 263 264 265 266 266 266 265 262 261 261 259 258 258 259 259 258 258 257 258 260 261 262 260 261 261 262 261 262 263 263 264 266 265 265 266 268 268 265 265 267 267 265 264
264 263 263 263 264 264 265 264 263 263 264 263 259 258 259 261 260 260 260 259 259 259 261 262 261 260 262 262 261 264 263 265 264 265 265 265 269 268 266 263 264 265 266 266 265
263 263 263 262 262 262 263 263 262 262 261 261 261 260 262 260 260 260 260 260 258 260 260 261 262 260 263 264 265 263 266 262 266 267 265 266 267 265 263 263 263 264 265 266 268
266 267 266 265 265 265 265 264 264 264 262 262 261 261 259 259 259 259 260 260 260 259 262 262 263 262 261 265 265 265 264 265 265 264 265 268 266 265 263 261 264 265 266 267 269
267 268 269 269 269 269 268 269 267 265 263 263 262 260 259 258 258 258 259 258 259 260 260 261 262 266 264 265 265 264 264 262 262 265 265 265 267 267 263 264 265 266 267 267 269
275 275 276 275 276 276 276 275 274 272 269 267 264 262 259 256 254 255 256 260 259 258 259 260 262 262 262 262 261 262 261 261 261 260 262 263 262 267 268 265 266 268 268 269 271
281 281 281 279 280 277 277 275 272 270 269 267 264 261 258 257 256 255 255 255 256 257 258 259 259 259 261 260 259 259 260 260 260 260 261 262 261 264 266 268 270 269 269 270 272
284 283 283 283 283 280 278 278 277 274 272 269 267 262 258 255 255 255 255 254 256 257 258 259 259 260 259 259 259 258 257 259 261 260 260 261 264 264 266 270 270 269 271 272 273
288 290 290 290 288 285 284 283 279 276 273 274 272 272 264 261 257 255 255 255 256 256 257 258 258 258 258 261 261 261 261 261 261 262 263 263 265 268 267 267 269 270 271 272 273
292 292 292 292 291 290 289 285 282 279 278 275 274 271 271 269 264 262 259 257 257 256 257 257 258 259 259 259 260 260 262 262 263 265 265 266 269 270 272 271 272 274 275 274 274
294 295 295 295 294 292 288 285 282 279 275 275 274 273 271 270 268 268 266 263 263 258 254 256 255 256 257 256 257 259 262 264 263 263 265 266 271 269 269 270 270 271 272 274 275
Height
10855 10857 10860 10863 10867 10870 10873 10876 10880 10884 10888 10891 10895 10899 10903 10907 10911 10914 10917 10919 10921 10923 10925 10925 10926 10928 10930 10932 10932 10933 10933 10931 10933 10935 10936 10936 10939 10940 10940 10940 10940 10941 10940 10940 10938
10854 10856 10860 10863 10866 10868 10872 10875 10877 10881 10884 10888 10892 10895 10899 10902 10906 10910 10914 10916 10918 10920 10920 10921 10922 10924 10926 10927 10929 10930 10929 10928 10930 10932 10928 10932 10934 10936 10935 10932 10934 10933 10932 10931 10930
10853 10856 10859 10861 10864 10866 10869 10872 10875 10877 10880 10884 10887 10891 10895 10899 10901 10904 10908 10910 10913 10915 10915 10914 10916 10919 10920 10923 10925 10925 10924 10924 10926 10926 10925 10926 10929 10928 10929 10927 10927 10925 10924 10923 10922
10852 10854 10856 10859 10861 10864 10866 10869 10871 10874 10877 10880 10883 10887 10891 10893 10896 10899 10902 10904 10906 10908 10908 10908 10910 10913 10915 10917 10919 10920 10920 10919 10922 10918 10920 10918 10922 10921 10922 10921 10920 10918 10917 10916 10916
10849 10851 10853 10856 10858 10860 10862 10864 10867 10870 10873 10876 10878 10882 10885 10888 10890 10893 10896 10898 10900 10902 10902 10902 10904 10906 10909 10910 10912 10913 10914 10915 10915 10911 10913 10912 10913 10915 10913 10913 10913 10912 10911 10911 10911
10845 10847 10849 10851 10854 10856 10858 10860 10862 10864 10867 10870 10873 10876 10879 10882 10884 10887 10889 10891 10893 10895 10895 10896 10898 10899 10902 10903 10905 10906 10908 10908 10908 10905 10906 10905 10906 10907 10904 10904 10905 10904 10902 10901 10902
10841 10842 10844 10847 10849 10851 10853 10854 10857 10859 10861 10864 10866 10869 10872 10873 10877 10878 10881 10882 10884 10887 10888 10889 10890 10892 10894 10896 10897 10899 10900 10901 10901 10899 10899 10897 10899 10897 10896 10895 10896 10895 10893 10892 10892
10836 10838 10840 10842 10844 10846 10847 10849 10851 10853 10855 10857 10859 10861 10864 10866 10868 10870 10873 10874 10876 10879 10880 10881 10883 10884 10885 10886 10888 10890 10891 10892 10893 10892 10892 10890 10893 10887 10887 10887 10885 10885 10884 10882 10880
10831 10833 10835 10837 10839 10840 10842 10844 10845 10847 10848 10849 10851 10853 10856 10858 10859 10862 10863 10865 10867 10869 10870 10872 10874 10875 10877 10878 10879 10880 10881 10882 10885 10884 10883 10881 10884 10880 10879 10877 10876 10874 10874 10873 10871
10826 10827 10829 10831 10833 10834 10836 10838 10839 10840 10841 10842 10844 10846 10848 10850 10851 10853 10854 10856 10858 10860 10861 10863 10864 10865 10867 10868 10869 10869 10870 10871 10875 10874 10872 10873 10873 10869 10870 10868 10866 10864 10864 10863 10862
10822 10823 10824 10825 10826 10828 10830 10831 10832 10832 10832 10835 10836 10838 10840 10842 10844 10845 10846 10848 10850 10852 10853 10855 10856 10857 10858 10859 10860 10861 10860 10860 10866 10862 10862 10864 10862 10860 10860 10859 10857 10856 10855 10854 10852
10817 10817 10818 10819 10820 10821 10822 10823 10824 10824 10825 10826 10828 10830 10832 10834 10836 10837 10838 10839 10841 10842 10844 10846 10847 10847 10848 10849 10849 10850 10849 10851 10851 10852 10852 10852 10852 10852 10850 10849 10846 10846 10845 10844 10843
10811 10812 10812 10812 10813 10814 10814 10814 10814 10815 10816 10818 10820 10822 10823 10824 10827 10829 10829 10831 10832 10833 10834 10836 10836 10838 10838 10837 10838 10838 10837 10840 10839 10837 10840 10839 10841 10841 10840 10838 10837 10835 10834 10832 10832
10804 10804 10804 10805 10806 10806 10806 10805 10805 10806 10806 10810 10810 10811 10812 10813 10816 10817 10818 10820 10821 10821 10823 10825 10825 10826 10825 10825 10825 10826 10824 10828 10828 10823 10826 10826 10825 10828 10826 10826 10824 10822 10821 10821 10820
10795 10795 10795 10794 10796 10796 10796 10794 10795 10795 10794 10803 10800 10800 10802 10801 10805 10806 10806 10808 10809 10809 10810 10810 10815 10814 10813 10812 10814 10811 10814 10813 10814 10812 10810 10815 10809 10816 10812 10812 10810 10809 10808 10807 10807
10786 10785 10784 10784 10785 10785 10783 10783 10783 10782 10782 10787 10788 10788 10788 10788 10791 10793 10793 10795 10795 10795 10795 10796 10801 10800 10798 10803 10801 10796 10799 10799 10800 10798 10801 10796 10793 10796 10803 10799 10794 10793 10793 10794 10795
10774 10773 10772 10772 10772 10771 10769 10769 10769 10767 10774 10774 10774 10774 10775 10775 10777 10778 10779 10781 10781 10782 10780 10781 10786 10784 10787 10788 10786 10785 10784 10786 10785 10784 10787 10778 10781 10774 10794 10781 10778 10779 10780 10779 10780
10760 10759 10759 10759 10758 10757 10755 10755 10754 10756 10758 10760 10757 10758 10759 10760 10762 10762 10763 10764 10765 10767 10764 10766 10768 10770 10774 10772 10773 10771 10771 10771 10770 10769 10769 10764 10767 10776 10770 10765 10764 10764 10764 10764 10764
10746 10745 10744 10744 10743 10742 10740 10738 10739 10741 10740 10742 10741 10742 10743 10743 10744 10746 10746 10747 10747 10751 10748 10749 10749 10756 10758 10754 10756 10757 10758 10755 10754 10757 10753 10745 10754 10752 10756 10751 10749 10749 10748 10746 10747
10732 10730 10729 10729 10729 10726 10725 10722 10724 10723 10724 10723 10721 10728 10723 10724 10725 10727 10727 10727 10726 10733 10731 10730 10732 10736 10743 10741 10742 10740 10739 10741 10739 10742 10738 10730 10732 10731 10740 10738 10736 10735 10735 10732 10732
10721 10720 10718 10717 10716 10713 10709 10708 10705 10705 10705 10704 10703 10704 10703 10704 10705 10706 10707 10699 10713 10713 10711 10709 10716 10713 10725 10721 10723 10726 10725 10724 10720 10728 10720 10724 10702 10717 10724 10723 10721 10721 10719 10717 10715
10713 10711 10708 10706 10703 10700 10696 10693 10690 10688 10686 10684 10682 10682 10682 10682 10683 10683 10682 10681 10692 10688 10687 10691 10698 10696 10697 10709 10703 10703 10708 10704 10706 10709 10702 10703 10684 10697 10703 10702 10703 10703 10702 10700 10697
10702 10699 10696 10692 10688 10684 10679 10675 10671 10668 10664 10661 10658 10656 10660 10657 10661 10657 10661 10666 10664 10664 10667 10670 10675 10677 10678 10686 10682 10683 10681 10687 10683 10689 10692 10679 10670 10677 10680 10684 10685 10684 10682 10682 10680
10689 10685 10680 10675 10670 10665 10660 10654 10650 10643 10640 10636 10633 10630 10632 10632 10634 10635 10637 10642 10642 10643 10643 10646 10651 10654 10658 10652 10666 10664 10660 10666 10662 10666 10671 10652 10647 10667 10666 10663 10662 10663 10661 10661 10659
10674 10669 10662 10657 10652 10646 10640 10632 10628 10624 10620 10617 10615 10612 10609 10608 10610 10611 10613 10621 10616 10622 10622 10622 10628 10628 10633 10639 10635 10638 10645 10645 10643 10641 10649 10625 10636 10642 10644 10645 10642 10641 10641 10639 10638
10658 10652 10645 10638 10632 10627 10618 10615 10609 10606 10601 10602 10596 10596 10593 10593 10591 10587 10592 10590 10594 10601 10594 10600 10603 10606 10610 10613 10612 10612 10618 10623 10625 10624 10619 10606 10615 10627 10617 10618 10621 10618 10616 10616 10614
10642 10635 10627 10619 10613 10606 10601 10598 10593 10588 10588 10582 10579 10578 10575 10576 10572 10572 10571 10572 10570 10572 10574 10576 10575 10582 10583 10590 10588 10589 10597 10598 10600 10598 10597 10591 10598 10593 10594 10598 10595 10597 10594 10592 10590